�ϑ��N����,2022/9/28,,,
�ϑ���,���Y����,,,
�ϑ��n�_,18,,,
���x�v�ԍ�,27,,,
,,,,
����,�C��,����,����,���l
9:30:00,25.1,7,0,
9:31:00,25.2,7,0,
9:32:00,25.2,6,1,
9:33:00,25.2,7,1,
9:34:00,25,5,0,
9:35:00,25,4,1,
9:36:00,25,6,1,
9:37:00,25.1,7,0,
9:38:00,25.4,6,1,
9:39:00,25.5,7,1,
9:40:00,25.5,6,0,
9:41:00,25.5,6,0,
9:42:00,25.6,7,1,
9:43:00,25.7,7,1,
9:44:00,25.7,7,1,
9:45:00,25.8,8,1,���������Ă���
9:46:00,25.8,7,0,
9:47:00,25.7,7,0,
9:48:00,25.8,6,0,
9:49:00,25.8,6,0,
9:50:00,25.9,1,1,
9:51:00,26,7,1,
9:52:00,26.1,7,2,
9:53:00,26,1,1,�_�ɉB�ꂽ
9:54:00,25.9,6,1,
9:55:00,25.5,7,1,
9:56:00,25.3,6,1,
9:57:00,25.3,6,1,
9:58:00,25.5,8,1,���ꂽ
9:59:00,25.5,3,1,�܂���
10:00:00,25.5,1,1,
10:01:00,25.5,6,0,
10:02:00,25.8,6,2,���ꂽ
10:03:00,25.9,7,2,
10:04:00,25.9,7,1,
10:05:00,25.9,7,2,
10:06:00,25.8,6,1,
10:07:00,25.8,7,2,
10:08:00,26,6,1,
10:09:00,26,1,1,
10:10:00,26,7,1,
10:11:00,26.1,8,2,
10:12:00,26.1,8,2,
10:13:00,26,6,0,
10:14:00,26,6,1,
10:15:00,26.2,1,1,
10:16:00,26.3,6,0,
10:17:00,26.3,6,0,
10:18:00,26.4,3,1,
10:19:00,26.4,7,1,
10:20:00,26.3,6,0,
10:21:00,26.3,7,1,
10:22:00,26.4,6,0,
10:23:00,26.5,6,0,
10:24:00,26.5,3,1,
10:25:00,26.5,7,1,�܂���
10:26:00,26.4,7,1,
10:27:00,26.3,7,1,
10:28:00,26.3,1,1,
10:29:00,26.3,7,0,
10:30:00,26.5,6,1,���ꂽ
10:31:00,26.2,3,1,�܂���
10:32:00,26.3,6,0,
10:33:00,26.5,3,1,
10:34:00,26.4,8,2,
10:35:00,26.2,6,0,
10:36:00,26.2,6,0,
10:37:00,26.4,4,1,
10:38:00,26.3,2,1,
10:39:00,26.2,6,0,
10:40:00,26.1,6,0,
10:41:00,26.2,6,1,
10:42:00,26.3,5,1,���ꂽ
10:43:00,26.5,8,1,
10:44:00,26.8,7,1,
10:45:00,26.8,7,1,
10:46:00,26.5,6,0,
10:47:00,26.8,3,1,
10:48:00,26.8,7,1,
10:49:00,26.6,7,2,�܂���
10:50:00,26.4,7,1,
10:51:00,26.3,6,0,
10:52:00,26.4,8,1,
10:53:00,26.7,6,0,
10:54:00,26.7,8,1,
10:55:00,26.6,7,1,
10:56:00,26.5,8,1,
10:57:00,26.3,7,0,
10:58:00,26.3,8,1,
10:59:00,26.3,5,1,
11:00:00,26.5,3,2,
11:01:00,26.4,3,1,
11:02:00,26.2,1,1,
11:03:00,26.3,1,1,���ꂽ
11:04:00,26.3,6,1,
11:05:00,26.5,8,1,
11:06:00,26.8,4,2,�܂���
11:07:00,26.8,3,2,
11:08:00,26.6,3,1,
11:09:00,26.6,3,1,
11:10:00,26.6,7,1,
11:11:00,26.6,8,2,
11:12:00,26.3,8,1,
11:13:00,26.3,7,1,
11:14:00,26.2,3,1,
11:15:00,26.4,8,1,���ꂽ
11:16:00,26.5,7,1,
11:17:00,26.8,8,2,
11:18:00,26.8,1,2,
11:19:00,26.9,8,2,
11:20:00,26.8,6,2,
11:21:00,26.5,8,1,�܂���
11:22:00,26.5,7,2,
11:23:00,26.5,5,1,���ꂽ
11:24:00,26.5,8,1,
11:25:00,26.6,6,2,�܂���
11:26:00,26.7,8,1,
11:27:00,26.7,7,1,
11:28:00,26.5,2,1,
11:29:00,26.3,8,1,
11:30:00,26.3,6,1,
